[[{"header":{"parameterUnit":"m.s-1","parameterCategory":1,"la1":30.2991,"la2":30.254,"lo1":-89.0895,"lo2":-89.0444,"dy":0.0017,"dx":0.0017,"nx":28,"ny":28,"refTime":"2023-11-01T09:00:00:Z","depth":0,"parameterNumber":2,"parameterNumberName":"U-component_of_WINDS"},"data":[0,0,0,0,0,0,0,0,0,0,0,0,0,0,0,0,0,0,0,0,0,0,0,0,0,0,0,0,0,0,0,0,0,0,0,0,0,0,0,0,0,0,0,0,0,0,0,0,0,0,0,0,0,0,0,0,0,0,-1.232,-1.2321,0,-1.2357,-1.2357,-1.2358,-1.2341,-1.234,-1.2339,-1.2338,-1.2376,-1.2378,-1.238,0,0,0,0,0,0,0,0,0,0,0,0,0,-1.2235,-1.2237,-1.232,-1.2321,-1.2321,-1.2357,-1.2357,-1.2358,-1.2341,-1.234,-1.2339,-1.2338,-1.2375,-1.2377,-1.238,0,0,0,0,0,0,0,0,0,0,0,0,0,-1.2272,-1.2237,-1.232,-1.2317,-1.2317,-1.2357,-1.2357,-1.2358,-1.2342,-1.234,-1.2339,-1.2337,-1.2375,-1.2377,-1.238,-1.2425,0,0,-1.2388,-1.239,0,0,0,0,0,0,0,0,-1.227,-1.2275,-1.2317,-1.2317,-1.2318,-1.2343,-1.2341,-1.238,-1.2342,-1.2332,-1.2338,-1.2337,-1.2366,-1.2369,-1.2379,-1.2426,-1.2428,-1.2389,-1.239,-1.2392,-1.2392,0,0,0,0,0,0,0,-1.2267,-1.2273,-1.2335,-1.2318,-1.2318,-1.2314,-1.2318,-1.2348,-1.2356,-1.2333,-1.2332,-1.2336,-1.2366,-1.2377,-1.238,-1.2428,-1.2389,-1.2391,-1.2393,-1.2394,-1.2513,-1.2515,0,0,0,0,0,0,-1.2265,-1.2271,-1.2334,-1.2336,-1.229,-1.2316,-1.2321,-1.2336,-1.2356,-1.2358,-1.2338,-1.2336,-1.2373,-1.2377,-1.2381,-1.2435,-1.2392,-1.2394,-1.2396,-1.2512,-1.2514,-1.2515,0,0,0,0,0,0,-1.2263,-1.2271,-1.2332,-1.2303,-1.2311,-1.2319,-1.2337,-1.2338,-1.2349,-1.236,-1.2361,-1.2347,-1.2372,-1.2377,-1.2414,-1.2436,-1.2395,-1.2398,-1.251,-1.2512,-1.2515,-1.2542,0,0,0,0,0,0,-1.2261,-1.227,-1.2287,-1.2304,-1.2312,-1.2364,-1.2338,-1.2339,-1.2353,-1.2351,-1.2369,-1.2371,-1.2371,-1.241,-1.2417,-1.2439,-1.24,-1.2508,-1.2511,-1.2514,-1.2539,-1.2545,-1.255,0,0,0,0,0,-1.2258,-1.2294,-1.2288,-1.2296,-1.2334,-1.2366,-1.2371,-1.2371,-1.2355,-1.2373,-1.2379,-1.237,-1.2432,-1.2414,-1.2421,-1.2445,-1.2507,-1.251,-1.2514,-1.2537,-1.2544,-1.255,0,0,0,0,0,0,-1.228,-1.2296,-1.229,-1.2333,-1.2348,-1.2363,-1.2385,-1.2378,-1.2398,-1.2395,-1.2394,-1.2398,-1.2436,-1.2444,-1.2423,-1.2489,-1.2467,-1.2472,-1.2482,-1.2489,-1.2494,-1.2492,-1.2402,0,0,0,0,0,-1.229,-1.2314,-1.2327,-1.2363,-1.2371,-1.2376,-1.239,-1.2389,-1.2405,-1.2411,-1.2421,-1.2436,-1.2459,-1.2474,-1.2496,-1.254,-1.2544,-1.256,-1.2565,-1.257,-1.2574,-1.2598,-1.2605,-1.2526,-1.2526,-1.2526,0,0,-1.231,-1.2322,-1.2337,-1.2368,-1.2379,-1.2404,-1.2382,-1.241,-1.2428,-1.2415,-1.245,-1.2458,-1.2475,-1.2515,-1.2533,-1.2523,-1.2597,-1.2574,-1.2577,-1.258,-1.2602,-1.2609,-1.2616,-1.2529,-1.2528,-1.2528,0,0,-1.2361,-1.2372,-1.2403,-1.2415,-1.2433,-1.2437,-1.2444,-1.246,-1.2464,-1.2499,-1.249,-1.2512,-1.2552,-1.2564,-1.2576,-1.263,-1.2622,-1.2637,-1.2665,-1.2688,-1.2694,-1.27,-1.2719,-1.2726,-1.2641,-1.2641,-1.2642,0,-1.2384,-1.2422,-1.242,-1.2448,-1.2462,-1.2451,-1.2482,-1.2494,-1.2518,-1.2528,-1.2515,-1.2565,-1.2576,-1.2619,-1.2632,-1.2641,-1.265,-1.2635,-1.2694,-1.2699,-1.2704,-1.2723,-1.273,-1.2643,-1.2643,-1.2643,-1.2643,0,-1.2449,-1.2475,-1.2499,-1.2522,-1.2538,-1.2568,-1.2571,-1.2587,-1.2584,-1.2588,-1.2624,-1.2636,-1.266,-1.267,-1.2667,-1.2713,-1.2706,-1.2694,-1.2672,-1.2714,-1.2731,-1.2738,-1.2646,-1.2645,-1.2645,-1.2644,0,0,-1.2516,-1.2538,-1.2546,-1.2557,-1.2575,-1.2595,-1.2624,-1.2647,-1.2661,-1.2678,-1.2702,-1.2735,-1.2724,-1.2737,-1.2736,-1.2756,-1.2798,-1.2741,-1.2742,-1.2752,-1.2849,-1.2858,-1.2866,-1.2792,-1.2794,-1.2795,-1.2847,0,-1.2568,-1.2619,-1.2618,-1.2665,-1.2689,-1.2679,-1.2704,-1.2718,-1.2722,-1.2743,-1.2748,-1.2772,-1.2755,-1.2763,-1.2783,-1.2789,-1.2818,-1.2785,-1.2815,-1.2816,-1.2812,-1.2876,-1.2886,-1.2935,-1.2854,-1.2855,-1.2856,0,-1.2636,-1.2654,-1.2704,-1.2719,-1.2729,-1.2752,-1.2773,-1.2793,-1.2808,-1.281,-1.2824,-1.2819,-1.2848,-1.2825,-1.2865,-1.2843,-1.2855,-1.286,-1.2861,-1.2865,-1.2839,-1.2881,-1.295,-1.2958,-1.2867,-1.2866,-1.2865,0,-1.268,-1.2717,-1.2752,-1.2761,-1.2779,-1.2795,-1.2803,-1.2817,-1.2831,-1.2849,-1.2858,-1.2879,-1.2891,-1.2907,-1.2908,-1.2891,-1.2949,-1.2925,-1.2951,-1.2951,-1.2964,-1.2964,-1.3037,-1.2971,-1.2971,-1.2971,-1.2971,0,-1.2738,-1.2769,-1.2772,-1.2793,-1.2827,-1.2826,-1.2859,-1.2866,-1.2878,-1.29,-1.2892,-1.2913,-1.2912,-1.2933,-1.2934,-1.2967,-1.2972,-1.2974,-1.2974,-1.2976,-1.2975,-1.2984,-1.2981,-1.2973,-1.2972,-1.2972,-1.2972,0,-1.2793,-1.2796,-1.2833,-1.2847,-1.2851,-1.2876,-1.2887,-1.2907,-1.2911,-1.2939,-1.2945,-1.2951,-1.2975,-1.2977,-1.3005,-1.3006,-1.3046,-1.3042,-1.3041,-1.304,-1.3066,-1.3064,-1.3148,-1.3159,-1.3085,-1.3086,-1.3087,0,-1.2831,-1.2855,-1.2871,-1.2885,-1.2894,-1.2917,-1.2931,-1.293,-1.2945,-1.2963,-1.2981,-1.3005,-1.3024,-1.3063,-1.3069,-1.3091,-1.3087,-1.3115,-1.3091,-1.3091,-1.3088,-1.3087,-1.3089,-1.3121,-1.3121,-1.3122,-1.3123,0,-1.2898,-1.2898,-1.2918,-1.294,-1.2957,-1.2973,-1.2989,-1.3001,-1.3001,-1.3018,-1.3043,-1.3058,-1.3086,-1.311,-1.3131,-1.3138,-1.3131,-1.313,-1.3137,-1.3139,-1.3138,-1.3139,-1.3055,-1.3129,-1.3128,-1.3127,-1.3127,-1.3127,-1.2946,-1.2966,-1.298,-1.3003,-1.3015,-1.3029,-1.3049,-1.3054,-1.3075,-1.3098,-1.3096,-1.3124,-1.3137,-1.3165,-1.3174,-1.3195,-1.3186,-1.3196,-1.3199,-1.3201,-1.3204,-1.3134,-1.3199,-1.3199,-1.3199,-1.3198,-1.3198,0,-1.3012,-1.302,-1.3042,-1.3064,-1.3082,-1.3072,-1.3089,-1.3104,-1.3129,-1.3142,-1.3161,-1.3189,-1.3211,-1.3219,-1.3241,-1.3256,-1.3253,-1.3262,-1.3261,-1.3263,-1.3211,-1.3203,-1.3264,-1.3264,-1.3264,-1.3264,-1.3264,-1.3264,-1.3049,-1.3083,-1.3084,-1.3123,-1.3131,-1.3158,-1.3169,-1.3182,-1.3193,-1.3224,-1.3243,-1.3248,-1.3259,-1.3281,-1.3301,-1.3303,-1.3312,-1.3322,-1.3322,-1.3274,-1.3267,-1.3261,-1.3253,-1.3324,-1.3324,-1.3373,-1.3373,-1.3373]},{"header":{"parameterUnit":"m.s-1","parameterCategory":1,"la1":30.2991,"la2":30.254,"lo1":-89.0895,"lo2":-89.0444,"dy":0.0017,"dx":0.0017,"nx":28,"ny":28,"refTime":"2023-11-01T09:00:00:Z","depth":0,"parameterNumber":3,"parameterNumberName":"V-component_of_WINDS"},"data":[0,0,0,0,0,0,0,0,0,0,0,0,0,0,0,0,0,0,0,0,0,0,0,0,0,0,0,0,0,0,0,0,0,0,0,0,0,0,0,0,0,0,0,0,0,0,0,0,0,0,0,0,0,0,0,0,0,0,-6.5446,-6.5447,0,-6.5523,-6.5524,-6.5524,-6.5489,-6.5487,-6.5485,-6.5483,-6.5555,-6.5559,-6.5563,0,0,0,0,0,0,0,0,0,0,0,0,0,-6.5265,-6.5268,-6.5446,-6.5447,-6.5448,-6.5523,-6.5524,-6.5525,-6.5489,-6.5487,-6.5484,-6.5482,-6.5554,-6.5558,-6.5563,0,0,0,0,0,0,0,0,0,0,0,0,0,-6.5342,-6.5269,-6.5446,-6.544,-6.544,-6.5522,-6.5524,-6.5525,-6.549,-6.5487,-6.5484,-6.5481,-6.5553,-6.5558,-6.5564,-6.5655,0,0,-6.5581,-6.5583,0,0,0,0,0,0,0,0,-6.5338,-6.5349,-6.544,-6.544,-6.5441,-6.5493,-6.5486,-6.5568,-6.549,-6.547,-6.5483,-6.548,-6.5537,-6.5543,-6.5564,-6.5659,-6.5662,-6.5581,-6.5584,-6.5587,-6.5588,0,0,0,0,0,0,0,-6.5333,-6.5346,-6.5476,-6.5441,-6.5442,-6.5431,-6.5439,-6.5501,-6.5518,-6.5472,-6.547,-6.5479,-6.5536,-6.5558,-6.5565,-6.5663,-6.5581,-6.5586,-6.5589,-6.5591,-6.5837,-6.584,0,0,0,0,0,0,-6.5328,-6.5341,-6.5474,-6.5479,-6.5381,-6.5437,-6.5446,-6.5479,-6.5518,-6.5521,-6.5482,-6.5477,-6.555,-6.5559,-6.5568,-6.5678,-6.5587,-6.5592,-6.5595,-6.5834,-6.5838,-6.5841,0,0,0,0,0,0,-6.5325,-6.534,-6.5471,-6.541,-6.5425,-6.5443,-6.5481,-6.5482,-6.5504,-6.5525,-6.5528,-6.5502,-6.5548,-6.556,-6.5634,-6.568,-6.5594,-6.5599,-6.583,-6.5835,-6.5839,-6.5899,0,0,0,0,0,0,-6.5319,-6.5339,-6.5375,-6.5411,-6.5429,-6.5538,-6.5484,-6.5486,-6.5515,-6.551,-6.5545,-6.5547,-6.5547,-6.5626,-6.564,-6.5686,-6.5604,-6.5826,-6.5832,-6.5838,-6.5893,-6.5905,-6.5916,0,0,0,0,0,-6.5313,-6.5388,-6.5378,-6.5394,-6.5475,-6.5541,-6.5551,-6.5551,-6.5519,-6.5554,-6.5568,-6.5546,-6.5673,-6.5634,-6.5649,-6.5698,-6.5823,-6.583,-6.5837,-6.5888,-6.5903,-6.5915,0,0,0,0,0,0,-6.5355,-6.5392,-6.5381,-6.547,-6.5503,-6.5535,-6.558,-6.5566,-6.5607,-6.5601,-6.5597,-6.5605,-6.5682,-6.5697,-6.5653,-6.5789,-6.5743,-6.5753,-6.5776,-6.579,-6.5802,-6.5796,-6.5608,0,0,0,0,0,-6.5375,-6.5427,-6.5456,-6.5531,-6.5549,-6.5562,-6.559,-6.5588,-6.562,-6.5634,-6.5652,-6.5684,-6.573,-6.5761,-6.5805,-6.5895,-6.5902,-6.5936,-6.5947,-6.5956,-6.5965,-6.6014,-6.603,-6.5865,-6.5865,-6.5864,0,0,-6.5416,-6.5443,-6.5475,-6.5541,-6.5566,-6.5619,-6.5573,-6.5631,-6.567,-6.5641,-6.5714,-6.5729,-6.5763,-6.5846,-6.5883,-6.5861,-6.6013,-6.5966,-6.5973,-6.5977,-6.6023,-6.6039,-6.6053,-6.5869,-6.5869,-6.5868,0,0,-6.5518,-6.5544,-6.561,-6.5636,-6.5676,-6.5684,-6.57,-6.5735,-6.5744,-6.5817,-6.5797,-6.5842,-6.5923,-6.5949,-6.5973,-6.6086,-6.6067,-6.61,-6.6159,-6.6207,-6.622,-6.6231,-6.6272,-6.6286,-6.6109,-6.6109,-6.6109,0,-6.5563,-6.5644,-6.5645,-6.5705,-6.5734,-6.5713,-6.5779,-6.5804,-6.5856,-6.5875,-6.585,-6.5952,-6.5973,-6.6062,-6.609,-6.611,-6.6127,-6.6096,-6.6218,-6.623,-6.624,-6.6279,-6.6294,-6.6113,-6.6112,-6.6112,-6.6112,0,-6.5698,-6.5754,-6.5802,-6.5855,-6.5889,-6.5952,-6.5961,-6.5995,-6.599,-6.6,-6.6075,-6.61,-6.615,-6.6171,-6.6165,-6.6259,-6.6244,-6.6219,-6.6172,-6.626,-6.6296,-6.6311,-6.6118,-6.6117,-6.6116,-6.6115,0,0,-6.5827,-6.5881,-6.5899,-6.5923,-6.5966,-6.6008,-6.607,-6.612,-6.615,-6.6186,-6.6237,-6.6306,-6.6284,-6.631,-6.6307,-6.6349,-6.6438,-6.6319,-6.6319,-6.634,-6.6543,-6.6562,-6.6579,-6.6426,-6.6429,-6.6431,-6.654,0,-6.5932,-6.6043,-6.6046,-6.6146,-6.6198,-6.6179,-6.6233,-6.6264,-6.6276,-6.632,-6.6332,-6.6382,-6.6348,-6.6364,-6.6405,-6.6418,-6.6478,-6.641,-6.6472,-6.6474,-6.6464,-6.6598,-6.6618,-6.672,-6.6554,-6.6557,-6.6558,0,-6.607,-6.6113,-6.6219,-6.6256,-6.6277,-6.6326,-6.6373,-6.6416,-6.645,-6.6456,-6.6487,-6.6478,-6.6539,-6.6492,-6.6576,-6.653,-6.6555,-6.6565,-6.6569,-6.6575,-6.6522,-6.6607,-6.6752,-6.6768,-6.6581,-6.6579,-6.6577,0,-6.6154,-6.6238,-6.6313,-6.6334,-6.6378,-6.6413,-6.6432,-6.6465,-6.6495,-6.6535,-6.6555,-6.6601,-6.6626,-6.6662,-6.6665,-6.663,-6.675,-6.6702,-6.6755,-6.6755,-6.6781,-6.6779,-6.6932,-6.6797,-6.6797,-6.6797,-6.6796,0,-6.6271,-6.6337,-6.6352,-6.6398,-6.6471,-6.6473,-6.6544,-6.6561,-6.659,-6.6637,-6.6623,-6.6668,-6.667,-6.6715,-6.6718,-6.6787,-6.6798,-6.6803,-6.6803,-6.6805,-6.6804,-6.6821,-6.6814,-6.6801,-6.68,-6.6799,-6.6798,0,-6.6377,-6.639,-6.6471,-6.6507,-6.6518,-6.657,-6.66,-6.6643,-6.6654,-6.6714,-6.6728,-6.6745,-6.6797,-6.6804,-6.6865,-6.6867,-6.695,-6.6943,-6.694,-6.6938,-6.6991,-6.6986,-6.716,-6.7183,-6.7033,-6.7035,-6.7036,0,-6.6451,-6.6502,-6.6544,-6.6577,-6.6599,-6.6651,-6.6683,-6.6686,-6.672,-6.6764,-6.6802,-6.6853,-6.6895,-6.698,-6.6996,-6.7043,-6.7036,-6.7094,-6.7042,-6.7043,-6.7037,-6.7034,-6.7039,-6.7103,-6.7105,-6.7106,-6.7107,0,-6.6581,-6.6586,-6.6634,-6.6684,-6.6723,-6.6762,-6.6799,-6.6826,-6.6834,-6.6872,-6.6927,-6.696,-6.7023,-6.7075,-6.7121,-6.7139,-6.7125,-6.7124,-6.7138,-6.714,-6.7137,-6.714,-6.6967,-6.7119,-6.7118,-6.7117,-6.7117,-6.7116,-6.6674,-6.6719,-6.6756,-6.681,-6.6838,-6.6874,-6.6917,-6.6934,-6.6981,-6.7034,-6.7033,-6.7094,-6.7127,-6.7188,-6.721,-6.7256,-6.7236,-6.7258,-6.7263,-6.7268,-6.7274,-6.713,-6.7264,-6.7264,-6.7263,-6.7263,-6.7263,0,-6.6804,-6.6827,-6.6877,-6.6931,-6.6973,-6.6958,-6.6998,-6.7034,-6.7088,-6.7121,-6.7164,-6.7227,-6.7277,-6.7298,-6.7346,-6.738,-6.7374,-6.7392,-6.739,-6.7394,-6.7288,-6.7271,-6.7396,-6.7396,-6.7396,-6.7396,-6.7396,-6.7396,-6.6876,-6.6951,-6.696,-6.7049,-6.7071,-6.7133,-6.7157,-6.7189,-6.7216,-6.7288,-6.733,-6.7345,-6.7373,-6.7424,-6.7468,-6.7473,-6.7491,-6.7513,-6.7514,-6.7415,-6.7401,-6.7389,-6.7372,-6.7517,-6.7517,-6.7616,-6.7617,-6.7618]}]]